Location: Chimay
(50.0486°N, 4.3171°E)
Time: 21:07:40
(UTC+00:00)

Cosmos 1814 Rocket - Pass Details

Date: 08 August 2020
Orbit: 744 x 788 km, 74.1° (Epoch: 21 September)

Event Time Altitude Azimuth Distance (km) Brightness Sun altitude
Rises 21:46:04 0° 338° (NNW) 3,215 8.8 -18.9°
Reaches altitude 10° 21:48:30 10° 344° (NNW) 2,292 7.6 -19.1°
Maximum altitude 21:53:34 51° 60° (ENE) 961 4.4 -19.5°
Enters shadow 21:55:33 33° 116° (ESE) 1,266 4.7 -19.6°
